Flag Weather past 2 weeks in Kailua-Kona, Hawaii, U.S.A.

Now
75 °F

Clear.


Feels Like: 77 °F
Forecast: 71 / 80 °F
Wind: 9 mph from North

Location: Keahole Airport

Current Time: Nov 28, 2014 at 12:20:35 AM

Latest Report: Nov 27, 2014 at 11:53 PM


Visibility: 10 mi

Pressure: 29.99 "Hg

Humidity: 69%

Dew point: 64 °F

Location of Kailua-KonaLocation

Historic Weather in Kailua-Kona — Graph

°F

Kailua-Kona temperature yesterday

Maximum temperature yesterday: 87 °F (at 1:53 PM)
Minimum temperature yesterday: 72 °F (at 3:53 AM)
Average temperature yesterday: 79 °F

Past Weeks' High & Low Weather Summary

 TemperatureHumidityPressure
High87 °F (Nov 27, 1:53 PM)94% (Nov 13, 5:29 AM)30.08 "Hg (Nov 13, 5:29 AM)
Low70 °F (Nov 24, 3:53 AM)46% (Nov 17, 8:53 AM)29.83 "Hg (Nov 13, 3:53 PM)
Average78 °F69%29.96 "Hg
* Reported Nov 12 10:11 PM — Nov 27 10:53 PM, Kailua-Kona, Weather by CustomWeather, © 2014

Note: Actual official high and low records may vary slightly from our data, if they occured in-between our weather recording intervals... More about our weather records

Advertising

Kailua-Kona weather history for previous 24 hours

 ConditionsComfort  
Time TempWeatherWind HumidityBarometerVisibility
10:53 PM
Nov 27
75 °FClear.No wind69%29.98 "Hg10 mi
9:53 PM75 °FClear.7 mph71%29.99 "Hg10 mi
8:53 PM76 °FClear.7 mph62%29.99 "Hg10 mi
7:53 PM78 °FClear.8 mph64%29.99 "Hg10 mi
6:53 PM80 °FClear.3 mph67%29.97 "Hg10 mi
5:53 PM81 °FClear.7 mph65%29.95 "Hg10 mi
4:53 PM85 °FPassing clouds.17 mph50%29.93 "Hg10 mi
3:53 PM85 °FScattered clouds.10 mph50%29.92 "Hg10 mi
2:53 PM86 °FPassing clouds.15 mph49%29.90 "Hg10 mi
1:53 PM87 °FPassing clouds.9 mph46%29.90 "Hg10 mi
12:53 PM85 °FSunny.10 mph53%29.93 "Hg10 mi
11:53 AM83 °FSunny.7 mph55%29.96 "Hg10 mi
10:53 AM83 °FSunny.6 mph53%29.98 "Hg10 mi
9:53 AM83 °FSunny.6 mph48%29.99 "Hg10 mi
8:53 AM82 °FPassing clouds.6 mph46%30.00 "Hg10 mi
7:53 AM75 °FSunny.6 mph74%30.00 "Hg10 mi
6:53 AM72 °FSunny.3 mph76%29.98 "Hg10 mi
5:53 AM72 °FClear.3 mph68%29.96 "Hg10 mi
4:53 AM73 °FClear.8 mph64%29.98 "Hg10 mi
3:53 AM72 °FClear.3 mph71%29.96 "Hg10 mi
2:53 AM74 °FClear.14 mph62%29.97 "Hg10 mi
1:53 AM75 °FClear.16 mph60%29.98 "Hg10 mi
12:53 AM74 °FClear.9 mph67%30.00 "Hg10 mi
Weather by CustomWeather, © 2014

See weather overviewHow to use our weather pages